This is the latest recevied weather packets stored in our database for station/object KM4KBD. If no packets are shown the sender has not sent any weather packets the latest 10 day(s).
| Time | Temp. | Humidity | Pressure | Rain* | Wind** | Luminosity | Snow |
|---|---|---|---|---|---|---|---|
| 1777606779 | 7.78° C | 78% | 1022.1 hPa | 0 mm | - | 0 W/m² | - |
| 1777606474 | 7.78° C | 75% | 1022.1 hPa | 0 mm | - | 0 W/m² | - |
| 1777606170 | 7.78° C | 76% | 1022.1 hPa | 0 mm | - | 0 W/m² | - |
| 1777605867 | 7.78° C | 75% | 1022.4 hPa | 0 mm | - | 0 W/m² | - |
| 1777605566 | 7.78° C | 76% | 1022.2 hPa | 0 mm | - | 0 W/m² | - |
| 1777605262 | 7.78° C | 75% | 1022.3 hPa | 0 mm | - | 0 W/m² | - |
| 1777604959 | 7.78° C | 75% | 1022.3 hPa | 0 mm | - | 0 W/m² | - |
| 1777604654 | 6.67° C | 79% | 1022.3 hPa | 0 mm | - | 0 W/m² | - |
| 1777604351 | 6.67° C | 82% | 1022.2 hPa | 0 mm | - | 0 W/m² | - |
| 1777604050 | 6.67° C | 81% | 1022.3 hPa | 0 mm | - | 0 W/m² | - |
| 1777603748 | 6.67° C | 82% | 1022.3 hPa | 0 mm | - | 0 W/m² | - |
| 1777603444 | 6.67° C | 82% | 1022.3 hPa | 0 mm | - | 0 W/m² | - |
| 1777603140 | 7.22° C | 80% | 1022.2 hPa | 0 mm | - | 0 W/m² | - |
| 1777602835 | 7.22° C | 80% | 1022.1 hPa | 0 mm | - | 0 W/m² | - |
| 1777602530 | 7.22° C | 79% | 1022.4 hPa | 0 mm | - | 0 W/m² | - |
| 1777602227 | 7.78° C | 78% | 1022.3 hPa | 0 mm | - | 0 W/m² | - |
| 1777601923 | 8.33° C | 73% | 1022.2 hPa | 0 mm | - | 0 W/m² | - |
| 1777601617 | 8.33° C | 72% | 1022.1 hPa | 0 mm | - | 0 W/m² | - |
| 1777601313 | 8.89° C | 72% | 1022.1 hPa | 0 mm | - | 0 W/m² | - |
| 1777601010 | 8.89° C | 68% | 1021.9 hPa | 0 mm | - | 0 W/m² | - |
| 1777600707 | 9.44° C | 66% | 1022.1 hPa | 0 mm | - | 0 W/m² | - |
| 1777600402 | 9.44° C | 66% | 1022.1 hPa | 0 mm | - | 0 W/m² | - |
| 1777600099 | 9.44° C | 65% | 1022 hPa | 0 mm | - | 0 W/m² | - |
| 1777599794 | 9.44° C | 68% | 1022.1 hPa | 0 mm | - | 0 W/m² | - |
| 1777599489 | 10° C | 67% | 1021.8 hPa | 0 mm | - | 0 W/m² | - |
* Rain latest hour (hover to see other rain measurements)
** Current wind speed in m/s (hover to see current wind gust speed)